Bullhead City, AZ

7:49 AM MST on August 20, 2017 (GMT -0700)
Laughlin-Bullhead International

Weather History for KIFP - February, 2012

Change the Weather History Date:

Wednesday, February 22, 2012

  Actual Average Record
Temperature  
Mean Temperature 66 °F -  
Max Temperature 77 °F 65 °F 84 °F (1991)
Min Temperature 55 °F 47 °F 35 °F (2013)
Cooling Degree Days 1    
Growing Degree Days 16 (Base 50)    
Moisture  
Dew Point 27 °F    
Average Humidity 23    
Maximum Humidity 33    
Minimum Humidity 18    
Precipitation  
Precipitation 0.00 in - - ()
Sea Level Pressure  
Sea Level Pressure 30.07 in    
Wind  
Wind Speed 13 mph (North)    
Max Wind Speed 23 mph    
Max Gust Speed 26 mph    
Visibility 10 miles    
Events      
Averages and records for this station are not official NWS values.
T = Trace of Precipitation, MM = Missing Value Source: NWS Daily Summary

Daily Weather History Graph

Daily Weather History Graph

Search for Another Location

Airport or City:

Trip Planner

Search our weather history database for the weather conditions in past years. The results will help you decide how hot, cold, wet, or windy it might be!

Date:

Astronomy

Feb. 22, 2012 Rise Set
Actual Time 7:16 AM MST 6:27 PM MST
Civil Twilight 6:51 AM MST 6:52 PM MST
Nautical Twilight 6:21 AM MST 7:22 PM MST
Astronomical Twilight 5:52 AM MST 7:51 PM MST
Moon 7:20 AM MST (2/22) 7:32 PM MST (2/22)
Length of Visible Light 12h 01m
Length of Day
11h 10m
New Moon, 1% of the Moon is Illuminated
Feb 22
New Moon
Feb 29
First Quarter
Mar 8
Full
Mar 14
Last Quarter
Mar 22
New

Hourly Weather History & Observations

Time (MST) Temp. Dew Point Humidity Pressure Visibility Wind Dir Wind Speed Gust Speed Precip Events Conditions
12:15 AM 57.2 °F 24.8 °F 29% 30.14 in 10.0 mi North 12.7 mph - N/A   Clear
1:15 AM 57.2 °F 24.8 °F 29% 30.14 in 10.0 mi North 11.5 mph - N/A   Clear
1:35 AM 57.2 °F 24.8 °F 29% 30.14 in 10.0 mi North 10.4 mph - N/A   Clear
1:55 AM 57.2 °F 24.8 °F 29% 30.15 in 10.0 mi North 11.5 mph - N/A   Clear
2:15 AM 57.2 °F 24.8 °F 29% 30.14 in 10.0 mi North 11.5 mph - N/A   Clear
2:35 AM 55.4 °F 23.0 °F 29% 30.14 in 10.0 mi North 10.4 mph - N/A   Unknown
2:55 AM 55.4 °F 24.8 °F 31% 30.14 in 10.0 mi North 11.5 mph - N/A   Clear
3:35 AM 57.2 °F 23.0 °F 27% 30.14 in 10.0 mi North 11.5 mph - N/A   Clear
3:55 AM 57.2 °F 24.8 °F 29% 30.13 in 10.0 mi North 12.7 mph - N/A   Unknown
4:15 AM - - N/A% 30.12 in 10.0 mi North 10.4 mph - N/A   Unknown
4:35 AM 57.2 °F 23.0 °F 27% 30.12 in 10.0 mi North 9.2 mph - N/A   Clear
4:55 AM 59.0 °F 19.4 °F 22% 30.12 in 10.0 mi North 15.0 mph - N/A   Clear
5:15 AM 59.0 °F 19.4 °F 22% 30.13 in 10.0 mi North 16.1 mph - N/A   Clear
5:35 AM 57.2 °F 19.4 °F 23% 30.13 in 10.0 mi North 11.5 mph 18.4 mph N/A   Clear
5:55 AM 59.0 °F 23.0 °F 25% 30.13 in 10.0 mi North 15.0 mph - N/A   Clear
6:15 AM 55.4 °F 26.6 °F 33% 30.13 in 10.0 mi North 12.7 mph - N/A   Clear
7:15 AM 57.2 °F 21.2 °F 25% 30.13 in 10.0 mi NNE 12.7 mph - N/A   Clear
7:55 AM 59.0 °F 19.4 °F 22% 30.15 in 10.0 mi North 16.1 mph - N/A   Clear
8:15 AM 59.0 °F 21.2 °F 23% 30.16 in 10.0 mi North 13.8 mph - N/A   Clear
8:35 AM 59.0 °F 21.2 °F 23% 30.15 in 10.0 mi North 15.0 mph - N/A   Clear
8:55 AM 62.6 °F 21.2 °F 20% 30.16 in 10.0 mi North 15.0 mph - N/A   Clear
9:15 AM 62.6 °F 21.2 °F 20% 30.15 in 10.0 mi NNE 20.7 mph - N/A   Clear
9:35 AM 64.4 °F 23.0 °F 21% 30.13 in 10.0 mi North 20.7 mph 26.5 mph N/A   Clear
9:55 AM 64.4 °F 24.8 °F 22% 30.14 in 10.0 mi North 23.0 mph - N/A   Clear
10:15 AM 64.4 °F 24.8 °F 22% 30.14 in 10.0 mi North 18.4 mph - N/A   Clear
10:35 AM 66.2 °F 26.6 °F 23% 30.15 in 10.0 mi North 11.5 mph - N/A   Clear
10:55 AM 66.2 °F 26.6 °F 23% 30.15 in 10.0 mi North 15.0 mph 19.6 mph N/A   Clear
11:55 AM 68.0 °F 30.2 °F 24% 30.12 in 10.0 mi North 16.1 mph - N/A   Clear
12:35 PM 71.6 °F 32.0 °F 23% 30.09 in 10.0 mi North 12.7 mph 24.2 mph N/A   Clear
12:55 PM 73.4 °F 32.0 °F 22% 30.07 in 10.0 mi NNW 21.9 mph 25.3 mph N/A   Clear
1:35 PM 73.4 °F 32.0 °F 22% 30.05 in 10.0 mi North 17.3 mph 23.0 mph N/A   Clear
1:55 PM 75.2 °F 32.0 °F 21% 30.04 in 10.0 mi North 16.1 mph - N/A   Clear
2:15 PM 75.2 °F 32.0 °F 21% 30.02 in 10.0 mi North 17.3 mph - N/A   Clear
2:35 PM 75.2 °F 30.2 °F 19% 30.01 in 10.0 mi North 17.3 mph 23.0 mph N/A   Clear
2:55 PM 75.2 °F 30.2 °F 19% 30.00 in 10.0 mi North 16.1 mph 21.9 mph N/A   Clear
3:35 PM 77.0 °F 30.2 °F 18% 29.98 in 10.0 mi North 17.3 mph - N/A   Clear
3:55 PM 75.2 °F 30.2 °F 19% 29.98 in 10.0 mi North 15.0 mph - N/A   Clear
4:15 PM 77.0 °F 30.2 °F 18% 29.96 in 10.0 mi North 13.8 mph - N/A   Clear
4:35 PM 77.0 °F 30.2 °F 18% 29.95 in 10.0 mi North 11.5 mph - N/A   Clear
5:15 PM 77.0 °F 30.2 °F 18% 29.94 in 10.0 mi North 11.5 mph - N/A   Clear
5:35 PM 77.0 °F 30.2 °F 18% 29.93 in 10.0 mi North 11.5 mph - N/A   Clear
5:55 PM 75.2 °F 30.2 °F 19% 29.93 in 10.0 mi North 12.7 mph - N/A   Clear
6:55 PM 73.4 °F 32.0 °F 22% 29.93 in 10.0 mi North 8.1 mph - N/A   Clear
7:15 PM 71.6 °F 32.0 °F 23% 29.93 in 10.0 mi North 3.5 mph - N/A   Clear
7:35 PM 71.6 °F 32.0 °F 23% 29.93 in 10.0 mi North 4.6 mph - N/A   Clear
7:55 PM 69.8 °F 32.0 °F 25% 29.93 in 10.0 mi Calm Calm - N/A   Clear
8:15 PM 66.2 °F 30.2 °F 26% 29.93 in 10.0 mi East 4.6 mph - N/A   Clear
8:35 PM 68.0 °F 30.2 °F 24% 29.92 in 10.0 mi ESE 3.5 mph - N/A   Clear
8:55 PM 64.4 °F 30.2 °F 28% 29.92 in 10.0 mi Calm Calm - N/A   Clear
9:15 PM 64.4 °F 28.4 °F 26% 29.93 in 10.0 mi ENE 6.9 mph - N/A   Clear
9:35 PM 64.4 °F 28.4 °F 26% 29.93 in 10.0 mi East 9.2 mph - N/A   Clear
9:55 PM 64.4 °F 26.6 °F 24% 29.92 in 10.0 mi Calm Calm - N/A   Clear
10:15 PM 64.4 °F 28.4 °F 26% 29.92 in 10.0 mi Calm Calm - N/A   Clear
10:35 PM 64.4 °F 28.4 °F 26% 29.91 in 10.0 mi Calm Calm - N/A   Clear
11:15 PM 62.6 °F 24.8 °F 24% 29.90 in 10.0 mi Calm Calm - N/A   Clear
11:35 PM 60.8 °F 26.6 °F 27% 29.89 in 10.0 mi Calm Calm - N/A   Clear